Regional Weather Roundup
Issued by NWS

Home | Current Version | Previous Version | Graphics & Text | Print | Product List | Glossary On
Versions: 1 2 3 4 5 6 7 8 9 10 11 12 13 14 15 16 17 18 19 20 21 22 23 24 25 26 27 28 29 30 31 32 33 34 35 36 37 38 39 40 41 42 43 44 45 46 47 48 49 50
000
ASUS45 KCYS 090710
RWRWY

WYOMING REGIONAL WEATHER ROUNDUP
NATIONAL WEATHER SERVICE CHEYENNE WY
1200 AM MST TUE FEB 09 2016

NOTE:  "FAIR" INDICATES FEW OR NO CLOUDS BELOW 12,000 FEET
WITH NO SIGNIFICANT WEATHER AND/OR OBSTRUCTIONS TO VISIBILITY.

WYZ001-090800-
YELLOWSTONE NATIONAL PARK

CITY           SKY/WX    TMP DP  RH WIND       PRES   REMARKS
LK YELLOWSTONE   N/A     13   9  84 CALM      30.58R
W YELLOWSTONE  NOT AVBL

$$
WYZ002>013-054>058-071-098>099-090800-
NORTHERN WYOMING

CITY           SKY/WX    TMP DP  RH WIND       PRES   REMARKS
JACKSON        FAIR       9   7  92 N6        30.58R WCI  -1
CODY           FAIR      25  16  68 CALM      30.35S
GREYBULL       FAIR      23  18  81 N3        30.38R
WORLAND        FAIR      23  20  88 CALM      30.37R
SHERIDAN       FAIR      38  28  67 W8        30.30R WCI  32
BUFFALO        FAIR      42  27  55 NW9       30.28S
GILLETTE       FAIR      35  27  72 W14       30.26R WCI  26
HULETT         FAIR      36  25  64 SW6       30.25S WCI  31
NEWCASTLE      FAIR      30  23  74 NW8       30.24R WCI  23

$$
WYZ014>020-022>026-101>103-090800-
CENTRAL WYOMING

CITY           SKY/WX    TMP DP  RH WIND       PRES   REMARKS
BIG PINEY      FAIR      26  21  81 NE16      30.49S WCI  14
PINEDALE       FAIR      30  23  74 NW16      30.47F WCI  19
DUBOIS         FAIR      36  23  60 NW25G37   30.43R WCI  23
LANDER         FAIR      28  19  69 CALM      30.36F
RIVERTON       FAIR      20  15  81 W3        30.38S
CASPER         FAIR      31  21  66 SW18      30.35S WCI  19
DOUGLAS        FAIR      32  22  66 NW12G21     N/A  WCI  23

$$
WYZ021-027>030-104>119-090800-
SOUTHERN WYOMING

CITY           SKY/WX    TMP DP  RH WIND       PRES   REMARKS
EVANSTON       FAIR      28  17  63 SW8       30.57F WCI  20
FORT BRIDGER   SUNNY     32  25  74 W21       30.56F WCI  20
ROCK SPRINGS   FAIR      28  22  78 W20       30.49S WCI  15
DIXON          FAIR      11   8  87 CALM      30.55R
RAWLINS        FAIR      27  18  69 W9G17     30.43S WCI  18
SARATOGA       FAIR      14  12  92 CALM      30.45S
LARAMIE        FAIR      20  14  77 E5        30.35S WCI  13
CHEYENNE       FAIR      37  19  48 NW17G29   30.29S WCI  27
TORRINGTON     FAIR      34  24  67 NW12      30.26S WCI  25
PINE BLUFFS    FAIR      36  25  64 NW24G30   30.27F WCI  24

$$



USA.gov is the U.S. government's official web portal to all federal, state and local government web resources and services.